When you browse on this site, cookies collect data to enhance your experience and personalize the content and advertising you see.
Visit our Privacy Policy to learn more. By continuing to use the site, you agree to this use of cookies and data.
  • In Denmark
  • List of Countries
  • For 7 days
  • Water Temperature
  • Satellite Maps
  • Weather Map
  • Weather Widgets
  • user-avatar
    Login

    Hourly Weather Jakubik

    Today, 19 February, Tuesday

    Time Temperature Precipitation Wind Pressure Humidity
    00:00 -2°C° 0 mm 2 mps 698 mmHg 87%
    01:00 -2°C° 0 mm 2 mps 697 mmHg 86%
    02:00 -2°C° 0 mm 2 mps 697 mmHg 86%
    03:00 -2°C° 0 mm 2 mps 697 mmHg 87%
    04:00 -2°C° 0 mm 2 mps 697 mmHg 87%
    05:00 -2°C° 0 mm 2 mps 696 mmHg 87%
    06:00 -2°C° 0 mm 2 mps 696 mmHg 88%
    07:00 -2°C° 0 mm 2 mps 696 mmHg 88%
    08:00 -1°C° 0 mm 2 mps 697 mmHg 84%
    09:00 +2°C° 0 mm 2 mps 697 mmHg 79%
    10:00 +3°C° 0 mm 3 mps 697 mmHg 75%
    11:00 +4°C° 0 mm 3 mps 697 mmHg 72%
    12:00 +6°C° 0 mm 2 mps 697 mmHg 69%
    13:00 +7°C° 0 mm 2 mps 696 mmHg 66%
    14:00 +7°C° 0 mm 2 mps 696 mmHg 69%
    15:00 +6°C° 0 mm 2 mps 696 mmHg 73%
    16:00 +6°C° 0 mm 2 mps 696 mmHg 76%
    17:00 +4°C° 0 mm 2 mps 696 mmHg 81%
    18:00 +3°C° 0 mm 1 mps 695 mmHg 85%
    19:00 +2°C° 0 mm 1 mps 695 mmHg 90%
    20:00 +2°C° 0 mm 1 mps 695 mmHg 89%
    21:00 +1°C° 0 mm 1 mps 695 mmHg 88%
    22:00 +1°C° 0 mm 1 mps 695 mmHg 88%
    23:00 +1°C° 0 mm 1 mps 695 mmHg 87%

    Tomorrow, 20 February, Wednesday

    Time Temperature Precipitation Wind Pressure Humidity
    00:00 +1°C° 0 mm 1 mps 695 mmHg 86%
    01:00 +1°C° 0 mm 1 mps 695 mmHg 85%
    02:00 +1°C° 0.5 mm 1 mps 695 mmHg 87%
    03:00 +2°C° 0.5 mm 1 mps 695 mmHg 89%
    04:00 +2°C° 0.5 mm 1 mps 695 mmHg 91%
    05:00 -1°C° 0 mm 2 mps 695 mmHg 92%
    06:00 -1°C° 0 mm 2 mps 695 mmHg 92%
    07:00 -2°C° 0 mm 2 mps 695 mmHg 92%
    08:00 0°C° 0 mm 3 mps 696 mmHg 87%
    09:00 +1°C° 0 mm 3 mps 696 mmHg 81%
    10:00 +1°C° 0 mm 4 mps 697 mmHg 75%
    11:00 +1°C° 0.1 mm 4 mps 697 mmHg 73%
    12:00 +1°C° 0.1 mm 5 mps 697 mmHg 71%
    13:00 +2°C° 0.1 mm 5 mps 698 mmHg 69%
    14:00 +1°C° 0 mm 4 mps 698 mmHg 70%
    15:00 +1°C° 0 mm 4 mps 697 mmHg 72%
    16:00 +2°C° 0 mm 3 mps 697 mmHg 73%
    17:00 +1°C° 0 mm 3 mps 698 mmHg 77%
    18:00 0°C° 0 mm 3 mps 698 mmHg 81%
    19:00 -1°C° 0 mm 3 mps 698 mmHg 84%
    20:00 -1°C° 0 mm 2 mps 699 mmHg 85%
    21:00 -1°C° 0 mm 2 mps 699 mmHg 86%
    22:00 -1°C° 0 mm 2 mps 699 mmHg 87%
    23:00 -1°C° 0 mm 2 mps 699 mmHg 87%

    Day after tomorrow, 21 February, Thursday

    Time Temperature Precipitation Wind Pressure Humidity
    00:00 -1°C° 0 mm 2 mps 699 mmHg 88%
    01:00 -1°C° 0 mm 2 mps 699 mmHg 88%
    02:00 -1°C° 0 mm 2 mps 699 mmHg 88%
    03:00 -2°C° 0 mm 2 mps 699 mmHg 88%
    04:00 0°C° 0 mm 1 mps 699 mmHg 88%
    05:00 0°C° 0 mm 1 mps 699 mmHg 87%
    06:00 +1°C° 0 mm 1 mps 699 mmHg 87%
    07:00 +1°C° 0 mm 1 mps 700 mmHg 86%
    08:00 +2°C° 0.1 mm 1 mps 700 mmHg 83%
    09:00 +3°C° 0.1 mm 1 mps 700 mmHg 80%
    10:00 +3°C° 0.1 mm 2 mps 700 mmHg 77%
    11:00 +3°C° 0.1 mm 2 mps 700 mmHg 76%
    12:00 +4°C° 0.1 mm 2 mps 700 mmHg 75%
    13:00 +4°C° 0.1 mm 2 mps 700 mmHg 75%
    14:00 +4°C° 0.4 mm 2 mps 699 mmHg 79%
    15:00 +4°C° 0.4 mm 1 mps 699 mmHg 84%
    16:00 +4°C° 0.4 mm 1 mps 698 mmHg 88%
    17:00 +2°C° 0.8 mm 2 mps 698 mmHg 89%
    18:00 +2°C° 0.8 mm 2 mps 698 mmHg 89%
    19:00 +2°C° 0.8 mm 2 mps 698 mmHg 89%
    20:00 +2°C° 0.3 mm 2 mps 698 mmHg 89%
    21:00 +2°C° 0.3 mm 2 mps 698 mmHg 89%
    22:00 +1°C° 0.3 mm 3 mps 697 mmHg 89%
    23:00 +2°C° 0.3 mm 2 mps 697 mmHg 90%

    22 February, Friday

    Time Temperature Precipitation Wind Pressure Humidity
    00:00 +2°C° 0.3 mm 2 mps 697 mmHg 91%
    01:00 +2°C° 0.3 mm 2 mps 697 mmHg 93%
    02:00 +1°C° 0.7 mm 3 mps 696 mmHg 94%
    03:00 +1°C° 0.7 mm 3 mps 696 mmHg 94%
    04:00 +1°C° 0.7 mm 3 mps 696 mmHg 95%
    05:00 +1°C° 0.9 mm 3 mps 696 mmHg 95%
    06:00 0°C° 0.9 mm 4 mps 697 mmHg 95%
    07:00 0°C° 0.9 mm 4 mps 697 mmHg 95%
    08:00 -1°C° 0.7 mm 5 mps 698 mmHg 94%
    09:00 -4°C° 0.7 mm 5 mps 699 mmHg 93%
    10:00 -6°C° 0.7 mm 5 mps 699 mmHg 92%
    11:00 -6°C° 0.2 mm 5 mps 700 mmHg 88%
    12:00 -6°C° 0.2 mm 5 mps 701 mmHg 84%
    13:00 -8°C° 0.2 mm 6 mps 702 mmHg 80%
    14:00 -8°C° 0 mm 6 mps 702 mmHg 76%
    15:00 -8°C° 0 mm 6 mps 703 mmHg 73%
    16:00 -8°C° 0 mm 6 mps 704 mmHg 70%
    17:00 -8°C° 0 mm 5 mps 704 mmHg 73%
    18:00 -10°C° 0 mm 5 mps 705 mmHg 75%
    19:00 -10°C° 0 mm 4 mps 705 mmHg 78%
    20:00 -9°C° 0 mm 3 mps 706 mmHg 78%
    21:00 -9°C° 0 mm 3 mps 706 mmHg 78%
    22:00 -9°C° 0 mm 2 mps 706 mmHg 78%
    23:00 -9°C° 0 mm 2 mps 707 mmHg 77%

    23 February, Saturday

    Time Temperature Precipitation Wind Pressure Humidity
    00:00 -9°C° 0 mm 2 mps 707 mmHg 76%
    01:00 -9°C° 0 mm 2 mps 707 mmHg 76%
    02:00 -9°C° 0 mm 2 mps 707 mmHg 74%
    03:00 -9°C° 0 mm 2 mps 706 mmHg 73%
    04:00 -10°C° 0 mm 3 mps 706 mmHg 72%
    05:00 -10°C° 0 mm 3 mps 706 mmHg 73%
    06:00 -10°C° 0 mm 3 mps 707 mmHg 74%
    07:00 -10°C° 0 mm 3 mps 707 mmHg 74%
    08:00 -10°C° 0 mm 4 mps 707 mmHg 68%
    09:00 -9°C° 0 mm 4 mps 707 mmHg 61%
    10:00 -8°C° 0 mm 4 mps 708 mmHg 54%
    11:00 -7°C° 0 mm 4 mps 707 mmHg 50%
    12:00 -7°C° 0 mm 4 mps 707 mmHg 47%
    13:00 -5°C° 0 mm 4 mps 707 mmHg 43%
    14:00 -5°C° 0 mm 4 mps 707 mmHg 44%
    15:00 -6°C° 0 mm 3 mps 707 mmHg 44%
    16:00 -6°C° 0 mm 3 mps 706 mmHg 45%
    17:00 -6°C° 0 mm 3 mps 706 mmHg 48%
    18:00 -6°C° 0 mm 2 mps 706 mmHg 50%
    19:00 -6°C° 0 mm 2 mps 706 mmHg 53%
    20:00 -6°C° 0 mm 2 mps 706 mmHg 53%
    21:00 -6°C° 0 mm 2 mps 706 mmHg 54%
    22:00 -6°C° 0 mm 2 mps 706 mmHg 54%
    23:00 -6°C° 0 mm 2 mps 706 mmHg 56%

    24 February, Sunday

    Time Temperature Precipitation Wind Pressure Humidity
    00:00 -7°C° 0 mm 2 mps 706 mmHg 58%
    01:00 -7°C° 0 mm 2 mps 706 mmHg 60%
    02:00 -7°C° 0 mm 2 mps 706 mmHg 63%
    03:00 -8°C° 0 mm 2 mps 706 mmHg 65%
    04:00 -8°C° 0 mm 2 mps 706 mmHg 68%
    05:00 -8°C° 0 mm 2 mps 706 mmHg 70%
    06:00 -8°C° 0 mm 2 mps 706 mmHg 71%
    07:00 -8°C° 0 mm 2 mps 706 mmHg 73%
    08:00 -7°C° 0 mm 2 mps 707 mmHg 66%
    09:00 -6°C° 0 mm 2 mps 707 mmHg 59%
    10:00 -5°C° 0 mm 2 mps 708 mmHg 52%
    11:00 -4°C° 0 mm 2 mps 708 mmHg 50%
    12:00 -4°C° 0 mm 2 mps 708 mmHg 47%
    13:00 -4°C° 0 mm 3 mps 708 mmHg 45%
    14:00 -4°C° 0 mm 3 mps 708 mmHg 46%
    15:00 -3°C° 0 mm 2 mps 707 mmHg 48%
    16:00 -4°C° 0 mm 2 mps 707 mmHg 49%
    17:00 -5°C° 0 mm 2 mps 707 mmHg 55%
    18:00 -6°C° 0 mm 2 mps 707 mmHg 60%
    19:00 -6°C° 0 mm 1 mps 707 mmHg 66%
    20:00 -6°C° 0 mm 1 mps 707 mmHg 67%
    21:00 -6°C° 0 mm 1 mps 707 mmHg 68%
    22:00 -6°C° 0 mm 1 mps 707 mmHg 69%
    23:00 -6°C° 0 mm 1 mps 707 mmHg 70%
    Show more